Date String (YYYY-MM-DD hh:mm:ss) UTC,Instrument flags,Ambient pressure (hPa),Sample flow (lpm),Bypass flow (lpm),Sample temperature (°C),Ambient temperature (°C),ASC tube jacket temperature (°C),LED temperature (°C),Box temperature (°C),Sample RH (%),Span deviation,Mass concentration (μg/m³),Mass concentration (μg/m³),Mass concentration (μg/m³)
DateTimeUTC,F1_M11,P_M11,Q1_M11,Q2_M11,T1_M11,T2_M11,T3_M11,T4_M11,T5_M11,U1_M11,ZSPAN_M11,X2_M11,X0_M11,X1_M11
2023-02-15 14:00:00,,0820.0,5.00,0.00,22.8,22.1,00.0,31.6,24.6,08.1,0000.0,0001.65,0005.07,0001.13
2023-02-15 14:01:00,,0820.0,4.99,0.00,22.9,22.9,00.0,31.6,24.8,08.0,0000.0,0001.66,0004.84,0001.14
2023-02-15 14:02:00,,0819.9,5.04,0.00,22.9,22.7,00.0,31.6,24.8,08.0,0000.0,0001.66,0004.66,0001.14
2023-02-15 14:03:00,,0819.9,4.99,0.00,22.9,22.2,00.0,31.7,24.7,08.0,0000.0,0001.70,0004.69,0001.15
2023-02-15 14:04:00,,0819.9,5.01,0.00,22.8,21.7,00.0,31.7,24.5,08.0,0000.0,0001.71,0004.70,0001.16
2023-02-15 14:05:00,,0819.9,5.01,0.00,22.8,21.4,00.0,31.7,24.4,08.1,0000.0,0001.73,0004.97,0001.14
2023-02-15 14:06:00,,0819.9,4.98,0.00,22.7,21.1,00.0,31.7,24.4,08.1,0000.0,0001.69,0006.13,0001.15
2023-02-15 14:07:00,,0819.9,5.01,0.00,22.7,20.9,00.0,31.6,24.3,08.1,0000.0,0001.68,0006.03,0001.14
2023-02-15 14:08:00,,0820.0,4.97,0.00,22.7,20.8,00.0,31.6,24.3,08.1,0000.0,0001.69,0004.87,0001.14
2023-02-15 14:09:00,,0819.9,5.05,0.00,22.7,21.7,00.0,31.6,24.5,08.2,0000.0,0001.68,0004.52,0001.13
2023-02-15 14:10:00,,0819.9,5.00,0.00,22.8,22.7,00.0,31.6,24.7,08.1,0000.0,0001.70,0004.60,0001.13
2023-02-15 14:11:00,,0819.9,5.07,0.00,22.9,23.1,00.0,31.6,24.8,08.1,0000.0,0001.72,0004.65,0001.14
2023-02-15 14:12:00,,0819.9,4.96,0.00,22.9,22.4,00.0,31.6,24.7,08.1,0000.0,0001.75,0004.81,0001.14
2023-02-15 14:13:00,,0819.9,5.00,0.00,22.8,22.0,00.0,31.6,24.6,08.1,0000.0,0001.77,0004.94,0001.14
2023-02-15 14:14:00,,0819.9,5.01,0.00,22.8,21.6,00.0,31.6,24.5,08.1,0000.0,0001.74,0004.90,0001.14
2023-02-15 14:15:00,,0819.9,4.99,0.00,22.8,21.3,00.0,31.6,24.4,08.1,0000.0,0001.76,0004.94,0001.15
2023-02-15 14:16:00,,0819.9,4.98,0.00,22.7,21.0,00.0,31.6,24.3,08.2,0000.0,0001.78,0004.75,0001.18
2023-02-15 14:17:00,,0819.9,5.03,0.00,22.7,20.8,00.0,31.6,24.2,08.2,0000.0,0001.87,0003.66,0001.20
2023-02-15 14:18:00,,0819.9,5.02,0.00,22.6,21.0,00.0,31.6,24.2,08.2,0000.0,0001.94,0003.72,0001.23
2023-02-15 14:19:00,,0819.9,4.97,0.00,22.7,22.1,00.0,31.5,24.5,08.2,0000.0,0001.98,0003.86,0001.29
2023-02-15 14:20:00,,0819.9,5.00,0.00,22.8,22.9,00.0,31.5,24.8,08.2,0000.0,0001.96,0003.87,0001.33
2023-02-15 14:21:00,,0820.0,4.96,0.00,22.9,22.8,00.0,31.6,24.8,08.1,0000.0,0001.94,0003.77,0001.34
2023-02-15 14:22:00,,0819.9,4.99,0.00,22.9,22.3,00.0,31.6,24.7,08.1,0000.0,0001.91,0003.59,0001.37
2023-02-15 14:23:00,,0820.0,4.99,0.00,22.8,21.8,00.0,31.6,24.5,08.2,0000.0,0001.93,0003.78,0001.40
2023-02-15 14:24:00,,0820.0,5.00,0.00,22.8,21.4,00.0,31.6,24.4,08.2,0000.0,0001.95,0003.71,0001.44
2023-02-15 14:25:00,,0820.0,5.02,0.00,22.7,21.1,00.0,31.6,24.3,08.2,0000.0,0001.98,0003.87,0001.46
2023-02-15 14:26:00,,0820.0,5.00,0.00,22.7,20.9,00.0,31.6,24.2,08.2,0000.0,0001.97,0003.91,0001.47
2023-02-15 14:27:00,,0820.1,4.99,0.00,22.6,20.7,00.0,31.6,24.2,08.3,0000.0,0002.01,0004.07,0001.47
2023-02-15 14:28:00,,0820.0,4.99,0.00,22.6,21.3,00.0,31.5,24.3,08.3,0000.0,0002.04,0004.85,0001.50
2023-02-15 14:29:00,,0820.1,4.99,0.00,22.7,22.3,00.0,31.5,24.6,08.3,0000.0,0002.08,0005.07,0001.57
2023-02-15 14:30:00,,0820.2,4.91,0.00,22.8,23.2,00.0,31.5,24.8,08.2,0000.0,0002.15,0005.14,0001.61
2023-02-15 14:31:00,,0820.2,4.95,0.00,22.9,23.1,00.0,31.6,24.9,08.2,0000.0,0002.24,0005.11,0001.66
2023-02-15 14:32:00,,0820.2,5.00,0.00,22.9,22.5,00.0,31.6,24.7,08.2,0000.0,0002.32,0005.51,0001.70
2023-02-15 14:33:00,,0820.2,4.99,0.00,22.9,21.9,00.0,31.6,24.6,08.2,0000.0,0002.34,0006.04,0001.71
2023-02-15 14:34:00,,0820.2,4.99,0.00,22.8,21.5,00.0,31.6,24.5,08.2,0000.0,0002.31,0005.85,0001.71
2023-02-15 14:35:00,,0820.2,4.99,0.00,22.7,21.1,00.0,31.6,24.3,08.2,0000.0,0002.26,0005.62,0001.69
2023-02-15 14:36:00,,0820.2,4.98,0.00,22.7,20.9,00.0,31.6,24.2,08.2,0000.0,0002.24,0005.52,0001.67
2023-02-15 14:37:00,,0820.2,5.02,0.00,22.6,20.7,00.0,31.6,24.2,08.3,0000.0,0002.24,0005.48,0001.66
2023-02-15 14:38:00,,0820.2,5.01,0.00,22.6,21.1,00.0,31.6,24.3,08.3,0000.0,0002.22,0005.36,0001.66
2023-02-15 14:39:00,,0820.2,4.97,0.00,22.7,22.2,00.0,31.5,24.6,08.2,0000.0,0002.15,0004.66,0001.63
2023-02-15 14:40:00,,0820.3,4.99,0.00,22.8,23.1,00.0,31.5,24.8,08.2,0000.0,0002.08,0004.39,0001.54
2023-02-15 14:41:00,,0820.4,4.98,0.00,22.9,23.3,00.0,31.6,24.9,08.1,0000.0,0001.95,0004.20,0001.45
2023-02-15 14:42:00,,0820.4,4.99,0.00,22.9,22.7,00.0,31.6,24.7,08.1,0000.0,0001.86,0004.11,0001.38
2023-02-15 14:43:00,,0820.4,5.01,0.00,22.9,22.1,00.0,31.6,24.6,08.1,0000.0,0001.80,0003.77,0001.34
2023-02-15 14:44:00,,0820.5,5.00,0.00,22.8,21.6,00.0,31.7,24.5,08.1,0000.0,0001.77,0003.32,0001.30
2023-02-15 14:45:00,,0820.5,4.99,0.00,22.8,21.3,00.0,31.7,24.4,08.1,0000.0,0001.77,0003.34,0001.29
2023-02-15 14:46:00,,0820.6,4.99,0.00,22.7,21.0,00.0,31.6,24.3,08.2,0000.0,0001.81,0003.44,0001.31
2023-02-15 14:47:00,,0820.7,5.01,0.00,22.7,20.7,00.0,31.6,24.2,08.2,0000.0,0001.80,0004.99,0001.31
2023-02-15 14:48:00,,0820.6,5.02,0.00,22.6,21.0,00.0,31.6,24.3,08.2,0000.0,0001.77,0004.89,0001.31
2023-02-15 14:49:00,,0820.6,5.05,0.00,22.7,22.1,00.0,31.5,24.5,08.1,0000.0,0001.77,0005.94,0001.31
2023-02-15 14:50:00,,0820.7,5.03,0.00,22.8,22.9,00.0,31.5,24.8,08.1,0000.0,0001.77,0006.99,0001.31
2023-02-15 14:51:00,,0820.7,5.06,0.00,22.9,23.3,00.0,31.6,24.9,08.0,0000.0,0001.74,0006.80,0001.31
2023-02-15 14:52:00,,0820.7,5.01,0.00,22.9,22.7,00.0,31.6,24.8,08.0,0000.0,0001.71,0006.72,0001.31
2023-02-15 14:53:00,,0820.8,5.00,0.00,22.9,22.1,00.0,31.7,24.6,08.0,0000.0,0001.71,0006.75,0001.29
2023-02-15 14:54:00,,0820.9,4.99,0.00,22.8,21.6,00.0,31.7,24.5,08.1,0000.0,0001.68,0006.69,0001.29
2023-02-15 14:55:00,,0820.9,5.00,0.00,22.8,21.3,00.0,31.7,24.4,08.1,0000.0,0001.70,0006.67,0001.30
2023-02-15 14:56:00,,0820.9,5.02,0.00,22.7,20.9,00.0,31.6,24.3,08.1,0000.0,0001.72,0006.73,0001.31
2023-02-15 14:57:00,,0820.9,5.03,0.00,22.7,21.1,00.0,31.6,24.3,08.1,0000.0,0001.71,0006.75,0001.30
2023-02-15 14:58:00,,0820.9,4.97,0.00,22.8,22.0,00.0,31.6,24.6,08.1,0000.0,0001.74,0005.82,0001.30
2023-02-15 14:59:00,,0820.9,4.98,0.00,22.9,23.0,00.0,31.6,24.8,08.0,0000.0,0001.79,0005.32,0001.31
